STARLINK-1697 (46546 NORAD) Tracking and Keplerian Element Data

This shows tracking and keplerian element data for the satellite.

Feedback or suggestion? Click here.




ElementValue
Catalog46546
NameSTARLINK-1697
Epoch Orbit175
Epoch Day26.91667824
Epoch Year2021
RAAN281.3816
Inclination53.0018
Eccentricity0.000282
Argument of Perigee79.3123
Mean Anonmoly242.2752
Mean Motion15.05597088
Decay Rate-0.00023791
L11 46546U 20070Q 21026.91667824 -.00023791 00000-0 -16182-2 0 9992
L22 46546 53.0018 281.3816 0002820 79.3123 242.2752 15.05597088 1755

Live tracking and technical data element details for STARLINK-1697 (NORAD 46546). STARLINK-1697 can be tracked NOW for your location showing map with azimuth and elevation plus other details from your city location.

Track the satellite on the map from your city or location and see movement details for azimuth, elevation, latitude, longitude, range, height, and movement on the map or in text.







IsCatalogInMostPopularTable: catalog: 46546, numindb: 34
Update: records affected: 1



GetName: 46546 STARLINK-1697

Hit Count: updated at: Thu, 28 Jan 2021 10:56:10 GMT